Location: Unspecified
(0.0000°N, 0.0000°E)
Time: 13:38:43
(UTC+00:00)

A-11 Canister half - Visible Passes

Search period start: 27 April 2015 00:00
Search period end: 07 May 2015 00:00
Orbit: 1515 x 1685 km, 47.2° (Epoch: 25 April)

Date Brightness Start Highest point End Pass type
(mag) Time Alt. Az. Time Alt. Az. Time Alt. Az.
29 Apr 11.3 22:21:11 10° NNW 22:21:34 11° NNW 22:21:34 11° NNW visible
30 Apr 11.0 21:58:25 10° NNW 21:59:55 15° NNW 21:59:55 15° NNW visible
01 May 10.8 21:35:41 10° NNW 21:38:20 19° N 21:38:20 19° N visible
02 May 10.6 21:12:59 10° NNW 21:16:47 23° N 21:16:47 23° N visible
03 May 10.3 20:50:17 10° N 20:55:16 26° NNE 20:55:16 26° NNE visible
04 May 10.2 20:27:37 10° N 20:33:49 28° NNE 20:33:49 28° NNE visible
04 May 11.2 22:31:02 10° NW 22:32:01 14° NW 22:32:01 14° NW visible
05 May 10.1 20:04:59 10° N 20:12:24 27° NE 20:12:24 27° NE visible
05 May 10.8 22:08:02 10° NW 22:10:37 21° NW 22:10:37 21° NW visible
06 May 10.1 19:42:23 10° N 19:49:53 25° NE 19:51:02 25° NE visible
06 May 10.4 21:45:04 10° NW 21:49:16 29° NW 21:49:16 29° NW visible
